When you browse on this site, cookies collect data to enhance your experience and personalize the content and advertising you see.
Visit our Privacy Policy to learn more. By continuing to use the site, you agree to this use of cookies and data.
  • In Österreich
  • Länderverzeichnis
  • Für 7 Tage
  • Wassertemperatur
  • Satellitenkarten
  • Wetterkarte
  • News
  • Widgets
  • user-avatar
    Anmelden

    Stündliche Wetter Rabat

    Heute, 14 Dezember, Freitag

    Zeit Temperatur Niederschläge Wind Luftdruck Luftfeuchtigkeit
    00:00 +14°C° 0 mm 3 m/S 767 mmHg 78%
    01:00 +13°C° 0.1 mm 3 m/S 767 mmHg 79%
    02:00 +13°C° 0.1 mm 3 m/S 767 mmHg 79%
    03:00 +13°C° 0.1 mm 3 m/S 767 mmHg 79%
    04:00 +14°C° 0.1 mm 2 m/S 767 mmHg 80%
    05:00 +13°C° 0.1 mm 2 m/S 767 mmHg 81%
    06:00 +13°C° 0 mm 2 m/S 767 mmHg 81%
    07:00 +14°C° 0.1 mm 2 m/S 767 mmHg 79%
    08:00 +15°C° 0.1 mm 2 m/S 768 mmHg 76%
    09:00 +15°C° 0.1 mm 2 m/S 768 mmHg 74%
    10:00 +16°C° 0 mm 2 m/S 768 mmHg 68%
    11:00 +17°C° 0 mm 2 m/S 768 mmHg 63%
    12:00 +18°C° 0 mm 3 m/S 768 mmHg 58%
    13:00 +18°C° 0 mm 3 m/S 768 mmHg 58%
    14:00 +18°C° 0 mm 3 m/S 768 mmHg 57%
    15:00 +18°C° 0 mm 3 m/S 768 mmHg 57%
    16:00 +17°C° 0 mm 3 m/S 768 mmHg 61%
    17:00 +16°C° 0 mm 2 m/S 768 mmHg 65%
    18:00 +15°C° 0 mm 2 m/S 768 mmHg 70%
    19:00 +14°C° 0 mm 2 m/S 768 mmHg 72%
    20:00 +14°C° 0 mm 2 m/S 768 mmHg 74%
    21:00 +13°C° 0 mm 2 m/S 768 mmHg 76%
    22:00 +13°C° 0 mm 2 m/S 768 mmHg 78%
    23:00 +13°C° 0 mm 2 m/S 768 mmHg 80%

    Morgen, 15 Dezember, Samstag

    Zeit Temperatur Niederschläge Wind Luftdruck Luftfeuchtigkeit
    00:00 +13°C° 0 mm 2 m/S 768 mmHg 81%
    01:00 +11°C° 0 mm 3 m/S 768 mmHg 82%
    02:00 +11°C° 0 mm 3 m/S 768 mmHg 83%
    03:00 +11°C° 0 mm 3 m/S 768 mmHg 84%
    04:00 +11°C° 0 mm 3 m/S 768 mmHg 84%
    05:00 +11°C° 0 mm 3 m/S 768 mmHg 84%
    06:00 +10°C° 0 mm 3 m/S 768 mmHg 84%
    07:00 +11°C° 0 mm 3 m/S 768 mmHg 80%
    08:00 +12°C° 0 mm 3 m/S 768 mmHg 76%
    09:00 +13°C° 0 mm 3 m/S 768 mmHg 71%
    10:00 +14°C° 0 mm 3 m/S 768 mmHg 65%
    11:00 +17°C° 0 mm 4 m/S 768 mmHg 58%
    12:00 +19°C° 0 mm 4 m/S 768 mmHg 52%
    13:00 +19°C° 0 mm 4 m/S 767 mmHg 51%
    14:00 +20°C° 0 mm 4 m/S 767 mmHg 50%
    15:00 +20°C° 0 mm 4 m/S 767 mmHg 49%
    16:00 +19°C° 0 mm 3 m/S 767 mmHg 56%
    17:00 +17°C° 0 mm 3 m/S 767 mmHg 62%
    18:00 +16°C° 0 mm 3 m/S 767 mmHg 68%
    19:00 +14°C° 0 mm 3 m/S 767 mmHg 71%
    20:00 +14°C° 0 mm 3 m/S 767 mmHg 73%
    21:00 +13°C° 0 mm 3 m/S 767 mmHg 76%
    22:00 +14°C° 0 mm 2 m/S 767 mmHg 76%
    23:00 +14°C° 0 mm 2 m/S 767 mmHg 76%

    übermorgen, 16 Dezember, Sonntag

    Zeit Temperatur Niederschläge Wind Luftdruck Luftfeuchtigkeit
    00:00 +14°C° 0 mm 2 m/S 767 mmHg 76%
    01:00 +14°C° 0 mm 1 m/S 766 mmHg 76%
    02:00 +13°C° 0 mm 1 m/S 766 mmHg 75%
    03:00 +13°C° 0 mm 1 m/S 766 mmHg 75%
    04:00 +13°C° 0 mm 1 m/S 766 mmHg 74%
    05:00 +13°C° 0 mm 1 m/S 766 mmHg 73%
    06:00 +13°C° 0 mm 1 m/S 766 mmHg 72%
    07:00 +14°C° 0 mm 1 m/S 766 mmHg 68%
    08:00 +16°C° 0 mm 1 m/S 767 mmHg 63%
    09:00 +18°C° 0 mm 1 m/S 767 mmHg 59%
    10:00 +20°C° 0 mm 1 m/S 767 mmHg 54%
    11:00 +20°C° 0 mm 2 m/S 767 mmHg 49%
    12:00 +23°C° 0 mm 2 m/S 767 mmHg 44%
    13:00 +23°C° 0 mm 2 m/S 767 mmHg 47%
    14:00 +22°C° 0 mm 3 m/S 767 mmHg 50%
    15:00 +21°C° 0 mm 3 m/S 766 mmHg 53%
    16:00 +20°C° 0 mm 2 m/S 767 mmHg 62%
    17:00 +19°C° 0 mm 1 m/S 767 mmHg 71%
    18:00 +16°C° 0 mm 1 m/S 767 mmHg 79%
    19:00 +16°C° 0 mm 1 m/S 768 mmHg 80%
    20:00 +15°C° 0 mm 1 m/S 768 mmHg 81%
    21:00 +15°C° 0 mm 1 m/S 768 mmHg 82%
    22:00 +15°C° 0 mm 1 m/S 768 mmHg 83%
    23:00 +15°C° 0 mm 1 m/S 768 mmHg 83%

    17 Dezember, Montag

    Zeit Temperatur Niederschläge Wind Luftdruck Luftfeuchtigkeit
    00:00 +14°C° 0 mm 1 m/S 768 mmHg 84%
    01:00 +14°C° 0 mm 1 m/S 768 mmHg 85%
    02:00 +14°C° 0 mm 1 m/S 767 mmHg 85%
    03:00 +14°C° 0 mm 1 m/S 767 mmHg 85%
    04:00 +13°C° 0 mm 2 m/S 767 mmHg 85%
    05:00 +13°C° 0 mm 2 m/S 767 mmHg 84%
    06:00 +13°C° 0 mm 2 m/S 767 mmHg 84%
    07:00 +14°C° 0 mm 2 m/S 767 mmHg 81%
    08:00 +14°C° 0 mm 3 m/S 767 mmHg 77%
    09:00 +16°C° 0 mm 3 m/S 768 mmHg 74%
    10:00 +17°C° 0 mm 3 m/S 767 mmHg 68%
    11:00 +19°C° 0 mm 3 m/S 767 mmHg 63%
    12:00 +20°C° 0 mm 3 m/S 767 mmHg 58%
    13:00 +21°C° 0 mm 4 m/S 766 mmHg 57%
    14:00 +21°C° 0 mm 4 m/S 766 mmHg 56%
    15:00 +22°C° 0 mm 4 m/S 765 mmHg 55%
    16:00 +20°C° 0 mm 4 m/S 765 mmHg 63%
    17:00 +18°C° 0 mm 4 m/S 766 mmHg 70%
    18:00 +17°C° 0 mm 4 m/S 766 mmHg 78%
    19:00 +15°C° 0 mm 4 m/S 766 mmHg 79%
    20:00 +16°C° 0 mm 3 m/S 766 mmHg 81%
    21:00 +14°C° 0 mm 3 m/S 767 mmHg 82%
    22:00 +15°C° 0 mm 2 m/S 766 mmHg 82%
    23:00 +15°C° 0 mm 2 m/S 766 mmHg 82%

    18 Dezember, Dienstag

    Zeit Temperatur Niederschläge Wind Luftdruck Luftfeuchtigkeit
    00:00 +14°C° 0 mm 2 m/S 766 mmHg 82%
    01:00 +14°C° 0 mm 2 m/S 765 mmHg 82%
    02:00 +14°C° 0 mm 1 m/S 765 mmHg 82%
    03:00 +14°C° 0 mm 1 m/S 765 mmHg 82%
    04:00 +14°C° 0 mm 1 m/S 765 mmHg 81%
    05:00 +14°C° 0 mm 1 m/S 765 mmHg 80%
    06:00 +14°C° 0 mm 1 m/S 765 mmHg 80%
    07:00 +15°C° 0 mm 1 m/S 766 mmHg 76%
    08:00 +16°C° 0 mm 1 m/S 766 mmHg 72%
    09:00 +18°C° 0 mm 1 m/S 767 mmHg 68%
    10:00 +18°C° 0 mm 0 m/S 767 mmHg 63%
    11:00 +19°C° 0 mm 0 m/S 767 mmHg 57%
    12:00 +20°C° 0 mm 0 m/S 766 mmHg 52%
    13:00 +23°C° 0 mm 1 m/S 766 mmHg 50%
    14:00 +23°C° 0 mm 1 m/S 766 mmHg 49%
    15:00 +24°C° 0 mm 1 m/S 765 mmHg 47%
    16:00 +22°C° 0 mm 1 m/S 765 mmHg 54%
    17:00 +20°C° 0 mm 1 m/S 766 mmHg 62%
    18:00 +17°C° 0 mm 2 m/S 766 mmHg 69%
    19:00 +17°C° 0 mm 2 m/S 766 mmHg 72%
    20:00 +16°C° 0 mm 1 m/S 767 mmHg 74%
    21:00 +16°C° 0 mm 1 m/S 767 mmHg 77%
    22:00 +16°C° 0 mm 1 m/S 767 mmHg 77%
    23:00 +15°C° 0 mm 1 m/S 767 mmHg 77%

    19 Dezember, Mittwoch

    Zeit Temperatur Niederschläge Wind Luftdruck Luftfeuchtigkeit
    00:00 +15°C° 0 mm 1 m/S 767 mmHg 77%
    01:00 +15°C° 0 mm 1 m/S 766 mmHg 77%
    02:00 +15°C° 0 mm 1 m/S 766 mmHg 76%
    03:00 +15°C° 0 mm 1 m/S 766 mmHg 76%
    04:00 +14°C° 0 mm 1 m/S 766 mmHg 76%
    05:00 +14°C° 0 mm 1 m/S 766 mmHg 77%
    06:00 +14°C° 0 mm 1 m/S 766 mmHg 77%
    07:00 +15°C° 0 mm 1 m/S 767 mmHg 73%
    08:00 +16°C° 0 mm 1 m/S 767 mmHg 69%
    09:00 +18°C° 0 mm 1 m/S 767 mmHg 65%
    10:00 +20°C° 0 mm 1 m/S 767 mmHg 60%
    11:00 +21°C° 0 mm 1 m/S 767 mmHg 54%
    12:00 +23°C° 0 mm 1 m/S 767 mmHg 49%
    13:00 +23°C° 0 mm 1 m/S 766 mmHg 48%
    14:00 +23°C° 0 mm 1 m/S 766 mmHg 48%
    15:00 +23°C° 0 mm 1 m/S 765 mmHg 48%
    16:00 +22°C° 0 mm 1 m/S 766 mmHg 54%
    17:00 +20°C° 0 mm 1 m/S 766 mmHg 60%
    18:00 +17°C° 0 mm 2 m/S 766 mmHg 67%
    19:00 +18°C° 0 mm 1 m/S 766 mmHg 69%
    20:00 +16°C° 0 mm 1 m/S 766 mmHg 72%
    21:00 +16°C° 0 mm 1 m/S 767 mmHg 74%
    22:00 +15°C° 0 mm 1 m/S 766 mmHg 75%
    23:00 +15°C° 0 mm 1 m/S 766 mmHg 75%
    Mehr zeigen